JBU2269 KBOS-KFLL

Flight info

Callsign JBU2269
Flight time 2h 53m
Altitude 34000
Route SSOXS7 SSOXS Q167 RIFLE HEADI Q97 KALDA Q161 CHIEZ Y291 MAJIK CUUDA3
Aircraft A321/M-SDE3FGHIRWY/LB1

Departure

Time 2026-05-06 22:04
Airport Boston Logan International Airport (KBOS)

Arrival

Time 2026-05-07 00:57
Airport Fort Lauderdale Hollywood International Airport (KFLL)
Time Latitude Longitude Altitude Speed Heading
2026-05-06 20:18 42.36799 -71.01412 26 ft 0 kts 260°
2026-05-06 21:52 42.36800 -71.01402 28 ft 4 kts 260°
2026-05-06 21:52 42.36805 -71.01366 28 ft 4 kts 260°
2026-05-06 21:53 42.36809 -71.01337 30 ft 4 kts 267°
2026-05-06 21:53 42.36806 -71.01302 25 ft 4 kts 293°
2026-05-06 21:53 42.36793 -71.01273 25 ft 2 kts 315°
2026-05-06 21:53 42.36791 -71.01271 25 ft 0 kts 315°
2026-05-06 21:58 42.36811 -71.01284 25 ft 8 kts 347°
2026-05-06 21:59 42.36859 -71.01254 30 ft 8 kts 41°
2026-05-06 21:59 42.36901 -71.01206 30 ft 8 kts 40°
2026-05-06 21:59 42.36952 -71.01147 27 ft 13 kts 40°
2026-05-06 21:59 42.37031 -71.01082 28 ft 13 kts 26°
2026-05-06 22:00 42.37114 -71.01028 25 ft 13 kts 26°
2026-05-06 22:00 42.37188 -71.00980 25 ft 11 kts 26°
2026-05-06 22:00 42.37252 -71.00938 25 ft 11 kts 26°
2026-05-06 22:00 42.37327 -71.00895 25 ft 11 kts 20°
2026-05-06 22:01 42.37403 -71.00858 25 ft 14 kts 19°
2026-05-06 22:01 42.37496 -71.00813 25 ft 13 kts 19°
2026-05-06 22:01 42.37568 -71.00778 25 ft 9 kts 19°
2026-05-06 22:01 42.37619 -71.00754 25 ft 7 kts 19°
2026-05-06 22:02 42.37683 -71.00723 25 ft 15 kts 20°
2026-05-06 22:02 42.37777 -71.00677 25 ft 10 kts 19°
2026-05-06 22:02 42.37804 -71.00663 25 ft 0 kts 25°
2026-05-06 22:02 42.37826 -71.00640 25 ft 6 kts 49°
2026-05-06 22:03 42.37835 -71.00578 25 ft 7 kts 97°
2026-05-06 22:03 42.37820 -71.00523 25 ft 8 kts 117°
2026-05-06 22:03 42.37757 -71.00493 25 ft 13 kts 189°
2026-05-06 22:03 42.37501 -71.00614 27 ft 77 kts 200°
2026-05-06 22:04 42.36766 -71.00969 26 ft 145 kts 199°
2026-05-06 22:04 42.35662 -71.01507 304 ft 177 kts 197°
2026-05-06 22:04 42.34482 -71.01603 1371 ft 170 kts 169°
2026-05-06 22:04 42.33412 -71.00841 1779 ft 187 kts 137°
2026-05-06 22:05 42.32587 -70.99388 2069 ft 202 kts 133°
2026-05-06 22:05 42.31763 -70.97780 2392 ft 215 kts 124°
2026-05-06 22:05 42.31316 -70.95793 2815 ft 231 kts 104°
2026-05-06 22:05 42.31432 -70.93462 2961 ft 267 kts 85°
2026-05-06 22:06 42.31799 -70.90902 3231 ft 287 kts 86°
2026-05-06 22:06 42.32190 -70.88233 3787 ft 294 kts 86°
2026-05-06 22:06 42.32585 -70.85507 4431 ft 297 kts 86°
2026-05-06 22:06 42.32944 -70.82730 5060 ft 300 kts 92°
2026-05-06 22:07 42.32898 -70.79940 5690 ft 295 kts 107°
2026-05-06 22:07 42.32387 -70.77300 6329 ft 288 kts 122°
2026-05-06 22:07 42.31567 -70.74875 6960 ft 288 kts 124°
2026-05-06 22:07 42.30713 -70.72416 7612 ft 290 kts 126°
2026-05-06 22:08 42.29640 -70.70164 8241 ft 281 kts 139°
2026-05-06 22:08 42.28240 -70.68381 8859 ft 273 kts 153°
2026-05-06 22:08 42.26615 -70.67132 9490 ft 266 kts 166°
2026-05-06 22:08 42.24879 -70.66317 10109 ft 263 kts 170°
2026-05-06 22:09 42.23086 -70.65517 10302 ft 281 kts 169°
2026-05-06 22:09 42.21168 -70.64654 10465 ft 299 kts 169°
2026-05-06 22:09 42.19160 -70.63747 10920 ft 306 kts 168°
2026-05-06 22:09 42.17133 -70.62811 11485 ft 310 kts 168°
2026-05-06 22:10 42.15065 -70.62112 12043 ft 305 kts 180°
2026-05-06 22:10 42.12956 -70.62053 12614 ft 300 kts 191°
2026-05-06 22:10 42.10925 -70.62619 13161 ft 298 kts 202°
2026-05-06 22:10 42.08950 -70.63509 13694 ft 301 kts 202°
2026-05-06 22:11 42.06949 -70.64404 14200 ft 305 kts 202°
2026-05-06 22:11 42.04925 -70.65305 14704 ft 308 kts 202°
2026-05-06 22:11 42.03570 -70.65906 15028 ft 311 kts 202°
2026-05-06 22:11 42.00824 -70.67114 15683 ft 316 kts 203°
2026-05-06 22:12 41.99408 -70.67734 16023 ft 318 kts 203°
2026-05-06 22:12 41.96590 -70.68969 16639 ft 324 kts 203°
2026-05-06 22:12 41.94430 -70.69916 17098 ft 328 kts 203°
2026-05-06 22:12 41.92249 -70.70869 17564 ft 331 kts 203°
2026-05-06 22:13 41.90788 -70.71508 17877 ft 333 kts 204°
2026-05-06 22:13 41.88574 -70.72475 18326 ft 336 kts 204°
2026-05-06 22:13 41.86339 -70.73453 18775 ft 340 kts 204°
2026-05-06 22:13 41.84091 -70.74471 19218 ft 341 kts 207°
2026-05-06 22:14 41.81980 -70.75890 19632 ft 340 kts 214°
2026-05-06 22:14 41.79909 -70.77457 20071 ft 343 kts 214°
2026-05-06 22:14 41.77818 -70.79032 20518 ft 345 kts 213°
2026-05-06 22:14 41.75715 -70.80613 20937 ft 349 kts 213°
2026-05-06 22:15 41.73599 -70.82202 21361 ft 351 kts 213°
2026-05-06 22:15 41.71461 -70.83806 21768 ft 354 kts 213°
2026-05-06 22:15 41.69302 -70.85423 22168 ft 356 kts 213°
2026-05-06 22:15 41.67128 -70.87052 22562 ft 359 kts 213°
2026-05-06 22:16 41.64936 -70.88693 22956 ft 362 kts 213°
2026-05-06 22:16 41.63479 -70.89782 23211 ft 363 kts 213°
2026-05-06 22:16 41.61956 -70.90919 23480 ft 365 kts 213°
2026-05-06 22:16 41.59758 -70.92560 23839 ft 367 kts 213°
2026-05-06 22:17 41.57521 -70.94230 24191 ft 369 kts 213°
2026-05-06 22:17 41.55405 -70.96142 24531 ft 367 kts 223°
2026-05-06 22:17 41.53608 -70.98552 24875 ft 366 kts 233°
2026-05-06 22:17 41.52144 -71.01338 25203 ft 367 kts 237°
2026-05-06 22:18 41.50729 -71.04184 25549 ft 369 kts 237°
2026-05-06 22:18 41.49303 -71.07034 25895 ft 370 kts 237°
2026-05-06 22:18 41.47869 -71.09894 26231 ft 371 kts 237°
2026-05-06 22:18 41.46430 -71.12761 26558 ft 373 kts 238°
2026-05-06 22:19 41.44986 -71.15634 26879 ft 374 kts 238°
2026-05-06 22:19 41.43539 -71.18515 27185 ft 375 kts 238°
2026-05-06 22:19 41.42085 -71.21405 27491 ft 376 kts 238°
2026-05-06 22:19 41.40625 -71.24300 27794 ft 377 kts 238°
2026-05-06 22:20 41.39159 -71.27198 28089 ft 378 kts 238°
2026-05-06 22:20 41.37689 -71.30106 28396 ft 379 kts 238°
2026-05-06 22:20 41.36212 -71.33027 28686 ft 380 kts 239°
2026-05-06 22:20 41.34736 -71.35952 28973 ft 381 kts 239°
2026-05-06 22:21 41.33256 -71.38887 29246 ft 382 kts 239°
2026-05-06 22:21 41.31775 -71.41827 29527 ft 383 kts 239°
2026-05-06 22:21 41.30289 -71.44770 29789 ft 384 kts 239°
2026-05-06 22:21 41.28796 -71.47724 30036 ft 385 kts 239°
2026-05-06 22:22 41.27299 -71.50681 30271 ft 386 kts 239°
2026-05-06 22:22 41.25793 -71.53650 30516 ft 387 kts 239°
2026-05-06 22:22 41.24281 -71.56625 30748 ft 389 kts 239°
2026-05-06 22:22 41.22763 -71.59607 30978 ft 390 kts 239°
2026-05-06 22:23 41.21240 -71.62590 31219 ft 391 kts 239°
2026-05-06 22:23 41.19712 -71.65578 31450 ft 392 kts 240°
2026-05-06 22:23 41.18181 -71.68573 31686 ft 392 kts 240°
2026-05-06 22:23 41.16651 -71.71566 32012 ft 391 kts 240°
2026-05-06 22:24 41.15126 -71.74551 32335 ft 390 kts 240°
2026-05-06 22:24 41.13611 -71.77520 32649 ft 388 kts 240°
2026-05-06 22:24 41.12099 -71.80496 32952 ft 387 kts 240°
2026-05-06 22:24 41.10601 -71.83451 33243 ft 386 kts 241°
2026-05-06 22:25 41.09126 -71.86364 33530 ft 385 kts 241°
2026-05-06 22:25 41.07633 -71.89305 33795 ft 384 kts 241°
2026-05-06 22:25 41.04686 -71.95072 33885 ft 367 kts 241°
2026-05-06 22:26 41.02255 -72.00857 33886 ft 356 kts 249°
2026-05-06 22:26 41.00176 -72.06783 33877 ft 351 kts 250°
2026-05-06 22:27 40.98114 -72.12628 33877 ft 350 kts 250°
2026-05-06 22:27 40.96059 -72.18464 33869 ft 350 kts 250°
2026-05-06 22:28 40.93996 -72.24283 33872 ft 350 kts 250°
2026-05-06 22:28 40.91875 -72.30068 33869 ft 352 kts 244°
2026-05-06 22:29 40.88636 -72.35019 33870 ft 363 kts 233°
2026-05-06 22:29 40.85038 -72.39702 33871 ft 363 kts 233°
2026-05-06 22:30 40.81443 -72.44400 33875 ft 363 kts 233°
2026-05-06 22:30 40.77627 -72.48850 33876 ft 368 kts 229°
2026-05-06 22:31 40.73660 -72.53139 33880 ft 368 kts 229°
2026-05-06 22:31 40.69703 -72.57436 33882 ft 366 kts 231°
2026-05-06 22:32 40.66395 -72.62362 33884 ft 357 kts 238°
2026-05-06 22:32 40.63238 -72.67428 33883 ft 357 kts 238°
2026-05-06 22:33 40.60083 -72.72462 33882 ft 356 kts 238°
2026-05-06 22:33 40.56919 -72.77498 33881 ft 356 kts 238°
2026-05-06 22:34 40.53760 -72.82518 33883 ft 356 kts 238°
2026-05-06 22:34 40.50608 -72.87528 33883 ft 357 kts 238°
2026-05-06 22:35 40.47447 -72.92546 33883 ft 356 kts 238°
2026-05-06 22:35 40.44285 -72.97561 33883 ft 356 kts 238°
2026-05-06 22:36 40.41127 -73.02557 33882 ft 355 kts 238°
2026-05-06 22:36 40.37969 -73.07542 33884 ft 354 kts 238°
2026-05-06 22:37 40.34839 -73.12469 33883 ft 353 kts 238°
2026-05-06 22:37 40.31678 -73.17437 33882 ft 352 kts 238°
2026-05-06 22:38 40.28555 -73.22339 33882 ft 352 kts 238°
2026-05-06 22:38 40.25424 -73.27252 33889 ft 351 kts 238°
2026-05-06 22:39 40.22299 -73.32154 33880 ft 350 kts 238°
2026-05-06 22:39 40.19176 -73.37032 33882 ft 349 kts 238°
2026-05-06 22:40 40.16048 -73.41904 33881 ft 348 kts 238°
2026-05-06 22:40 40.12954 -73.46720 33879 ft 347 kts 238°
2026-05-06 22:41 40.08307 -73.53962 33876 ft 346 kts 238°
2026-05-06 22:42 40.05216 -73.58776 33880 ft 346 kts 238°
2026-05-06 22:42 40.02117 -73.63583 33889 ft 345 kts 238°
2026-05-06 22:43 39.99017 -73.68367 33887 ft 345 kts 238°
2026-05-06 22:43 39.95478 -73.72709 33884 ft 362 kts 222°
2026-05-06 22:43 39.93177 -73.74199 33880 ft 375 kts 214°
2026-05-06 22:44 39.90792 -73.75470 33879 ft 375 kts 214°
2026-05-06 22:44 39.85960 -73.78034 33875 ft 375 kts 214°
2026-05-06 22:45 39.81129 -73.80606 33877 ft 375 kts 214°
2026-05-06 22:45 39.76297 -73.83174 33874 ft 375 kts 214°
2026-05-06 22:46 39.71463 -73.85741 33876 ft 376 kts 214°
2026-05-06 22:46 39.66615 -73.88311 33871 ft 376 kts 214°
2026-05-06 22:47 39.61762 -73.90882 33869 ft 377 kts 214°
2026-05-06 22:47 39.56942 -73.93435 33869 ft 377 kts 214°
2026-05-06 22:48 39.52076 -73.96000 33869 ft 378 kts 214°
2026-05-06 22:48 39.47202 -73.98560 33870 ft 378 kts 214°
2026-05-06 22:49 39.42358 -74.01185 33868 ft 372 kts 219°
2026-05-06 22:49 39.40189 -74.02908 33873 ft 360 kts 227°
2026-05-06 22:49 39.38280 -74.04952 33876 ft 356 kts 230°
2026-05-06 22:50 39.34503 -74.09094 33876 ft 356 kts 229°
2026-05-06 22:50 39.30713 -74.13222 33874 ft 357 kts 229°
2026-05-06 22:51 39.26920 -74.17351 33871 ft 357 kts 229°
2026-05-06 22:51 39.23116 -74.21488 33869 ft 358 kts 229°
2026-05-06 22:52 39.19308 -74.25628 33865 ft 359 kts 229°
2026-05-06 22:52 39.15480 -74.29775 33866 ft 359 kts 229°
2026-05-06 22:53 39.11652 -74.33914 33867 ft 360 kts 229°
2026-05-06 22:53 39.07813 -74.38070 33868 ft 361 kts 229°
2026-05-06 22:54 39.03962 -74.42232 33867 ft 361 kts 229°
2026-05-06 22:54 39.00103 -74.46404 33868 ft 363 kts 228°
2026-05-06 22:55 38.96881 -74.49872 33874 ft 363 kts 228°
2026-05-06 22:55 38.92997 -74.54064 33882 ft 363 kts 229°
2026-05-06 22:56 38.89277 -74.58375 33883 ft 362 kts 230°
2026-05-06 22:56 38.85586 -74.62784 33891 ft 362 kts 230°
2026-05-06 22:57 38.81871 -74.67169 33888 ft 364 kts 230°
2026-05-06 22:57 38.78129 -74.71546 33890 ft 364 kts 230°
2026-05-06 22:58 38.74364 -74.75904 33891 ft 366 kts 229°
2026-05-06 22:58 38.70426 -74.80088 33896 ft 368 kts 226°
2026-05-06 22:59 38.66411 -74.84176 33899 ft 369 kts 226°
2026-05-06 22:59 38.62410 -74.88289 33905 ft 369 kts 226°
2026-05-06 23:00 38.58426 -74.92428 33911 ft 369 kts 227°
2026-05-06 23:00 38.54466 -74.96545 33912 ft 369 kts 226°
2026-05-06 23:01 38.50509 -75.00730 33912 ft 368 kts 228°
2026-05-06 23:01 38.46663 -75.05041 33913 ft 368 kts 228°
2026-05-06 23:02 38.42634 -75.09139 33913 ft 372 kts 225°
2026-05-06 23:02 38.38449 -75.13037 33916 ft 373 kts 224°
2026-05-06 23:03 38.34273 -75.16908 33917 ft 373 kts 224°
2026-05-06 23:03 38.30100 -75.20841 33920 ft 372 kts 224°
2026-05-06 23:04 38.25945 -75.24787 33921 ft 372 kts 224°
2026-05-06 23:04 38.21792 -75.28728 33918 ft 372 kts 224°
2026-05-06 23:05 38.17625 -75.32657 33917 ft 372 kts 224°
2026-05-06 23:05 38.13456 -75.36581 33919 ft 373 kts 224°
2026-05-06 23:06 38.09317 -75.40477 33916 ft 373 kts 224°
2026-05-06 23:06 38.05150 -75.44398 33919 ft 373 kts 224°
2026-05-06 23:07 38.00898 -75.48207 33919 ft 375 kts 222°
2026-05-06 23:07 37.96571 -75.51923 33921 ft 375 kts 221°
2026-05-06 23:08 37.92245 -75.55648 33918 ft 376 kts 221°
2026-05-06 23:08 37.87922 -75.59402 33918 ft 377 kts 222°
2026-05-06 23:09 37.83347 -75.62849 33926 ft 400 kts 209°
2026-05-06 23:09 37.80631 -75.63928 33927 ft 413 kts 204°
2026-05-06 23:09 37.77842 -75.64907 33926 ft 419 kts 204°
2026-05-06 23:10 37.72148 -75.66904 33925 ft 428 kts 204°
2026-05-06 23:10 37.66392 -75.68917 33924 ft 429 kts 204°
2026-05-06 23:11 37.60621 -75.70938 33926 ft 430 kts 204°
2026-05-06 23:11 37.54885 -75.72958 33923 ft 431 kts 204°
2026-05-06 23:12 37.49106 -75.74982 33925 ft 431 kts 204°
2026-05-06 23:12 37.43317 -75.77004 33926 ft 432 kts 204°
2026-05-06 23:13 37.37518 -75.79025 33926 ft 433 kts 204°
2026-05-06 23:13 37.31702 -75.81040 33925 ft 433 kts 204°
2026-05-06 23:14 37.25886 -75.83058 33921 ft 434 kts 204°
2026-05-06 23:14 37.20094 -75.85070 33914 ft 434 kts 204°
2026-05-06 23:15 37.16892 -75.86178 33912 ft 435 kts 204°
2026-05-06 23:15 37.11160 -75.88159 33909 ft 436 kts 204°
2026-05-06 23:16 37.05735 -75.91130 33908 ft 422 kts 217°
2026-05-06 23:16 37.00586 -75.94727 33907 ft 424 kts 217°
2026-05-06 23:17 36.95411 -75.98313 33904 ft 425 kts 216°
2026-05-06 23:17 36.90271 -76.01868 33904 ft 425 kts 217°
2026-05-06 23:18 36.85097 -76.05452 33911 ft 425 kts 217°
2026-05-06 23:18 36.79922 -76.09025 33910 ft 425 kts 217°
2026-05-06 23:19 36.74727 -76.12606 33910 ft 426 kts 217°
2026-05-06 23:19 36.69536 -76.16188 33912 ft 427 kts 217°
2026-05-06 23:20 36.64368 -76.19743 33914 ft 428 kts 217°
2026-05-06 23:20 36.59138 -76.23328 33921 ft 429 kts 217°
2026-05-06 23:21 36.53904 -76.26920 33926 ft 429 kts 217°
2026-05-06 23:21 36.48673 -76.30512 33933 ft 430 kts 217°
2026-05-06 23:22 36.43414 -76.34106 33945 ft 431 kts 217°
2026-05-06 23:22 36.38180 -76.37673 33944 ft 432 kts 217°
2026-05-06 23:23 36.32903 -76.41269 33949 ft 432 kts 217°
2026-05-06 23:23 36.27624 -76.44860 33955 ft 432 kts 217°
2026-05-06 23:24 36.22339 -76.48443 33961 ft 432 kts 216°
2026-05-06 23:24 36.17096 -76.51998 33968 ft 433 kts 217°
2026-05-06 23:25 36.11814 -76.55577 33969 ft 432 kts 216°
2026-05-06 23:25 36.06528 -76.59150 33968 ft 432 kts 216°
2026-05-06 23:26 36.01252 -76.62710 33972 ft 432 kts 217°
2026-05-06 23:26 35.95971 -76.66274 33964 ft 432 kts 217°
2026-05-06 23:27 35.90677 -76.69837 33946 ft 434 kts 217°
2026-05-06 23:27 35.85308 -76.73252 33937 ft 438 kts 214°
2026-05-06 23:28 35.79811 -76.76546 33951 ft 440 kts 214°
2026-05-06 23:28 35.74233 -76.79727 33951 ft 445 kts 210°
2026-05-06 23:29 35.68435 -76.82477 33959 ft 448 kts 209°
2026-05-06 23:29 35.62569 -76.85111 33962 ft 449 kts 208°
2026-05-06 23:30 35.56713 -76.87762 33968 ft 448 kts 209°
2026-05-06 23:30 35.50861 -76.90451 33966 ft 448 kts 209°
2026-05-06 23:31 35.45024 -76.93149 33967 ft 449 kts 209°
2026-05-06 23:31 35.39167 -76.95851 33970 ft 450 kts 209°
2026-05-06 23:32 35.33297 -76.98536 33975 ft 451 kts 209°
2026-05-06 23:32 35.27406 -77.01223 33983 ft 452 kts 209°
2026-05-06 23:33 35.21511 -77.03911 33990 ft 453 kts 209°
2026-05-06 23:33 35.15609 -77.06605 33992 ft 453 kts 209°
2026-05-06 23:34 35.09690 -77.09298 33993 ft 455 kts 209°
2026-05-06 23:34 35.03755 -77.11986 33995 ft 455 kts 209°
2026-05-06 23:35 34.97820 -77.14679 33993 ft 456 kts 209°
2026-05-06 23:35 34.91864 -77.17377 33990 ft 456 kts 209°
2026-05-06 23:36 34.85906 -77.20068 33987 ft 457 kts 209°
2026-05-06 23:36 34.79931 -77.22760 33992 ft 459 kts 209°
2026-05-06 23:37 34.73968 -77.25454 33996 ft 460 kts 209°
2026-05-06 23:37 34.67978 -77.28150 33995 ft 460 kts 209°
2026-05-06 23:38 34.62955 -77.30404 33985 ft 461 kts 209°
2026-05-06 23:38 34.56936 -77.33114 33984 ft 462 kts 210°
2026-05-06 23:39 34.50900 -77.35820 33990 ft 463 kts 209°
2026-05-06 23:39 34.44839 -77.38532 33988 ft 465 kts 209°
2026-05-06 23:40 34.38788 -77.41231 33995 ft 466 kts 209°
2026-05-06 23:40 34.32704 -77.43939 33998 ft 467 kts 209°
2026-05-06 23:41 34.26593 -77.46648 34004 ft 467 kts 210°
2026-05-06 23:41 34.20465 -77.49381 34007 ft 469 kts 209°
2026-05-06 23:42 34.14331 -77.52112 34010 ft 470 kts 209°
2026-05-06 23:42 34.08222 -77.54823 34022 ft 470 kts 210°
2026-05-06 23:43 34.02071 -77.57540 34030 ft 470 kts 209°
2026-05-06 23:43 33.95916 -77.60253 34022 ft 471 kts 210°
2026-05-06 23:44 33.89752 -77.62974 34008 ft 472 kts 210°
2026-05-06 23:44 33.83611 -77.65681 34009 ft 473 kts 210°
2026-05-06 23:45 33.77441 -77.68396 34013 ft 472 kts 210°
2026-05-06 23:45 33.71270 -77.71108 34019 ft 472 kts 210°
2026-05-06 23:46 33.65028 -77.73672 34017 ft 477 kts 206°
2026-05-06 23:46 33.58584 -77.75761 34024 ft 482 kts 203°
2026-05-06 23:47 33.52078 -77.77702 34021 ft 481 kts 203°
2026-05-06 23:47 33.45608 -77.79751 34028 ft 480 kts 204°
2026-05-06 23:48 33.39181 -77.81884 34033 ft 480 kts 205°
2026-05-06 23:48 33.32729 -77.84021 34031 ft 481 kts 204°
2026-05-06 23:49 33.26305 -77.86109 34029 ft 481 kts 204°
2026-05-06 23:49 33.19832 -77.88188 34031 ft 481 kts 204°
2026-05-06 23:50 33.13385 -77.90272 34023 ft 480 kts 204°
2026-05-06 23:50 33.03692 -77.93399 34026 ft 481 kts 204°
2026-05-06 23:51 32.97252 -77.95566 34026 ft 480 kts 205°
2026-05-06 23:51 32.90840 -77.97797 34024 ft 480 kts 205°
2026-05-06 23:52 32.84420 -78.00018 34027 ft 480 kts 205°
2026-05-06 23:52 32.77991 -78.02207 34036 ft 480 kts 205°
2026-05-06 23:53 32.71579 -78.04382 34046 ft 479 kts 205°
2026-05-06 23:53 32.65181 -78.06564 34042 ft 478 kts 205°
2026-05-06 23:54 32.58790 -78.08742 34040 ft 478 kts 205°
2026-05-06 23:54 32.52394 -78.10905 34039 ft 478 kts 205°
2026-05-06 23:55 32.45988 -78.13069 34046 ft 478 kts 205°
2026-05-06 23:55 32.39631 -78.15217 34030 ft 479 kts 205°
2026-05-06 23:56 32.33178 -78.17400 34040 ft 479 kts 205°
2026-05-06 23:56 32.26766 -78.19557 34041 ft 480 kts 205°
2026-05-06 23:57 32.20391 -78.21703 34031 ft 479 kts 205°
2026-05-06 23:57 32.13975 -78.23865 34030 ft 480 kts 205°
2026-05-06 23:58 32.07545 -78.26026 34035 ft 480 kts 205°
2026-05-06 23:58 32.01114 -78.28180 34035 ft 480 kts 205°
2026-05-06 23:59 31.94686 -78.30329 34027 ft 480 kts 205°
2026-05-06 23:59 31.88248 -78.32476 34037 ft 481 kts 205°
2026-05-07 00:00 31.81839 -78.34609 34038 ft 481 kts 205°
2026-05-07 00:00 31.75398 -78.36755 34032 ft 480 kts 205°
2026-05-07 00:01 31.68965 -78.38905 34044 ft 481 kts 205°
2026-05-07 00:01 31.62524 -78.41041 34046 ft 481 kts 205°
2026-05-07 00:02 31.56068 -78.43170 34050 ft 481 kts 205°
2026-05-07 00:02 31.49620 -78.45298 34050 ft 481 kts 205°
2026-05-07 00:03 31.43206 -78.47386 34054 ft 481 kts 205°
2026-05-07 00:03 31.36750 -78.49474 34051 ft 482 kts 204°
2026-05-07 00:04 31.30292 -78.51562 34049 ft 482 kts 204°
2026-05-07 00:04 31.23820 -78.53656 34052 ft 482 kts 204°
2026-05-07 00:05 31.17343 -78.55744 34056 ft 482 kts 204°
2026-05-07 00:05 31.10869 -78.57831 34059 ft 482 kts 204°
2026-05-07 00:06 31.04394 -78.59921 34058 ft 482 kts 204°
2026-05-07 00:06 30.97915 -78.62002 34057 ft 483 kts 204°
2026-05-07 00:07 30.91490 -78.64071 34052 ft 483 kts 204°
2026-05-07 00:07 30.85010 -78.66143 34051 ft 483 kts 204°
2026-05-07 00:08 30.78524 -78.68221 34049 ft 483 kts 204°
2026-05-07 00:08 30.72038 -78.70304 34048 ft 483 kts 204°
2026-05-07 00:09 30.65549 -78.72379 34049 ft 484 kts 204°
2026-05-07 00:09 30.59048 -78.74452 34052 ft 484 kts 204°
2026-05-07 00:10 30.52583 -78.76501 34058 ft 484 kts 204°
2026-05-07 00:10 30.46071 -78.78575 34059 ft 485 kts 204°
2026-05-07 00:11 30.39559 -78.80651 34058 ft 485 kts 204°
2026-05-07 00:11 30.33027 -78.82715 34062 ft 486 kts 204°
2026-05-07 00:12 30.26497 -78.84778 34065 ft 486 kts 204°
2026-05-07 00:12 30.20017 -78.86835 34067 ft 486 kts 204°
2026-05-07 00:13 30.13485 -78.88901 34070 ft 486 kts 204°
2026-05-07 00:13 30.06954 -78.90958 34071 ft 486 kts 204°
2026-05-07 00:14 30.00422 -78.93012 34072 ft 486 kts 204°
2026-05-07 00:14 29.93903 -78.95060 34068 ft 486 kts 203°
2026-05-07 00:15 29.87367 -78.97114 34064 ft 487 kts 203°
2026-05-07 00:15 29.80825 -78.99130 34071 ft 489 kts 199°
2026-05-07 00:16 29.74074 -79.00440 34082 ft 492 kts 196°
2026-05-07 00:16 29.67365 -79.01682 34081 ft 491 kts 196°
2026-05-07 00:17 29.60610 -79.02922 34080 ft 491 kts 196°
2026-05-07 00:17 29.53851 -79.04159 34076 ft 491 kts 196°
2026-05-07 00:18 29.47100 -79.05401 34078 ft 490 kts 196°
2026-05-07 00:18 29.40358 -79.06639 34070 ft 490 kts 196°
2026-05-07 00:19 29.33610 -79.07880 34074 ft 491 kts 196°
2026-05-07 00:19 29.26898 -79.09117 34074 ft 491 kts 196°
2026-05-07 00:20 29.20144 -79.10359 34072 ft 491 kts 196°
2026-05-07 00:20 29.13384 -79.11594 34074 ft 491 kts 196°
2026-05-07 00:21 29.07768 -79.12612 34071 ft 491 kts 196°
2026-05-07 00:21 29.01000 -79.13843 34068 ft 491 kts 196°
2026-05-07 00:22 28.94244 -79.15079 34067 ft 491 kts 196°
2026-05-07 00:22 28.87485 -79.16317 34067 ft 492 kts 196°
2026-05-07 00:23 28.80715 -79.17542 34068 ft 493 kts 195°
2026-05-07 00:23 28.73979 -79.18760 34071 ft 493 kts 195°
2026-05-07 00:24 28.67215 -79.19982 33727 ft 488 kts 196°
2026-05-07 00:24 28.63896 -79.20581 33554 ft 477 kts 196°
2026-05-07 00:24 28.60615 -79.21178 33305 ft 483 kts 196°
2026-05-07 00:25 28.57263 -79.21795 33062 ft 490 kts 195°
2026-05-07 00:25 28.53885 -79.22409 32814 ft 491 kts 195°
2026-05-07 00:25 28.50518 -79.23016 32565 ft 490 kts 195°
2026-05-07 00:25 28.47162 -79.23618 32315 ft 487 kts 195°
2026-05-07 00:26 28.43812 -79.24219 32065 ft 485 kts 195°
2026-05-07 00:26 28.40481 -79.24817 31815 ft 483 kts 195°
2026-05-07 00:26 28.37163 -79.25415 31565 ft 481 kts 195°
2026-05-07 00:26 28.33867 -79.26008 31314 ft 478 kts 195°
2026-05-07 00:27 28.30657 -79.26846 31062 ft 469 kts 202°
2026-05-07 00:27 28.27518 -79.27867 30810 ft 467 kts 202°
2026-05-07 00:27 28.24445 -79.28871 30563 ft 465 kts 202°
2026-05-07 00:27 28.21336 -79.29881 30312 ft 463 kts 202°
2026-05-07 00:28 28.18241 -79.30883 30062 ft 461 kts 202°
2026-05-07 00:28 28.15162 -79.31878 29810 ft 459 kts 202°
2026-05-07 00:28 28.12095 -79.32868 29553 ft 457 kts 202°
2026-05-07 00:28 28.09040 -79.33859 29308 ft 455 kts 202°
2026-05-07 00:29 28.06001 -79.34845 29059 ft 454 kts 202°
2026-05-07 00:29 28.02961 -79.35829 28808 ft 453 kts 202°
2026-05-07 00:30 27.93930 -79.38749 28052 ft 449 kts 202°
2026-05-07 00:30 27.90929 -79.39715 27804 ft 447 kts 202°
2026-05-07 00:30 27.84517 -79.41781 27265 ft 444 kts 201°
2026-05-07 00:31 27.81547 -79.42738 27015 ft 443 kts 201°
2026-05-07 00:31 27.78585 -79.43692 26764 ft 441 kts 201°
2026-05-07 00:31 27.75627 -79.44648 26510 ft 440 kts 201°
2026-05-07 00:31 27.72690 -79.45594 26260 ft 439 kts 201°
2026-05-07 00:32 27.69756 -79.46535 26010 ft 437 kts 201°
2026-05-07 00:32 27.66834 -79.47470 25759 ft 436 kts 201°
2026-05-07 00:32 27.63920 -79.48403 25509 ft 434 kts 201°
2026-05-07 00:32 27.61020 -79.49332 25256 ft 433 kts 201°
2026-05-07 00:33 27.58128 -79.50260 25005 ft 432 kts 201°
2026-05-07 00:33 27.55282 -79.51173 24766 ft 430 kts 201°
2026-05-07 00:33 27.52400 -79.52099 24508 ft 430 kts 201°
2026-05-07 00:33 27.49521 -79.53021 24258 ft 429 kts 201°
2026-05-07 00:34 27.46657 -79.53939 24007 ft 427 kts 200°
2026-05-07 00:34 27.43798 -79.54855 23970 ft 425 kts 201°
2026-05-07 00:34 27.40940 -79.55772 24076 ft 425 kts 200°
2026-05-07 00:34 27.38128 -79.56665 23904 ft 415 kts 200°
2026-05-07 00:35 27.35367 -79.57534 23654 ft 407 kts 200°
2026-05-07 00:35 27.32653 -79.58387 23406 ft 400 kts 200°
2026-05-07 00:35 27.30028 -79.59212 23154 ft 397 kts 200°
2026-05-07 00:35 27.27306 -79.60074 22916 ft 413 kts 200°
2026-05-07 00:36 27.24516 -79.60956 22669 ft 417 kts 200°
2026-05-07 00:36 27.21719 -79.61836 22412 ft 418 kts 200°
2026-05-07 00:36 27.18919 -79.62711 22162 ft 417 kts 200°
2026-05-07 00:36 27.16125 -79.63588 21771 ft 416 kts 200°
2026-05-07 00:37 27.13348 -79.64472 21304 ft 414 kts 200°
2026-05-07 00:37 27.10583 -79.65360 20835 ft 411 kts 200°
2026-05-07 00:37 27.07841 -79.66242 20367 ft 408 kts 199°
2026-05-07 00:37 27.05120 -79.67117 19907 ft 405 kts 199°
2026-05-07 00:38 27.02427 -79.67984 19457 ft 402 kts 199°
2026-05-07 00:38 26.99745 -79.68845 18988 ft 399 kts 199°
2026-05-07 00:38 26.97084 -79.69693 18531 ft 396 kts 199°
2026-05-07 00:38 26.94440 -79.70534 18080 ft 394 kts 198°
2026-05-07 00:39 26.91816 -79.71369 17629 ft 391 kts 198°
2026-05-07 00:39 26.89191 -79.72207 17089 ft 391 kts 198°
2026-05-07 00:39 26.86591 -79.73036 16646 ft 387 kts 198°
2026-05-07 00:39 26.84013 -79.73857 16201 ft 384 kts 198°
2026-05-07 00:40 26.81455 -79.74670 15764 ft 380 kts 197°
2026-05-07 00:40 26.78918 -79.75475 15334 ft 378 kts 197°
2026-05-07 00:40 26.76402 -79.76271 14895 ft 375 kts 197°
2026-05-07 00:40 26.73911 -79.77055 14642 ft 366 kts 196°
2026-05-07 00:41 26.71504 -79.77812 14491 ft 354 kts 196°
2026-05-07 00:41 26.69160 -79.78572 14182 ft 348 kts 198°
2026-05-07 00:41 26.66876 -79.79431 13808 ft 345 kts 200°
2026-05-07 00:41 26.64630 -79.80356 13416 ft 343 kts 201°
2026-05-07 00:42 26.62434 -79.81293 13015 ft 341 kts 201°
2026-05-07 00:42 26.60196 -79.82248 12605 ft 339 kts 201°
2026-05-07 00:42 26.57994 -79.83175 12205 ft 337 kts 200°
2026-05-07 00:42 26.55830 -79.84073 11816 ft 335 kts 200°
2026-05-07 00:43 26.53657 -79.85006 11423 ft 334 kts 201°
2026-05-07 00:43 26.51499 -79.86004 11178 ft 327 kts 202°
2026-05-07 00:43 26.50121 -79.86659 10993 ft 324 kts 203°
2026-05-07 00:43 26.47405 -79.87965 10564 ft 319 kts 203°
2026-05-07 00:44 26.45376 -79.88937 10231 ft 315 kts 203°
2026-05-07 00:44 26.43366 -79.89892 9887 ft 313 kts 203°
2026-05-07 00:44 26.41371 -79.90835 9548 ft 310 kts 203°
2026-05-07 00:44 26.40029 -79.91465 9327 ft 308 kts 203°
2026-05-07 00:45 26.38081 -79.92421 8993 ft 304 kts 209°
2026-05-07 00:45 26.36255 -79.93591 8658 ft 301 kts 211°
2026-05-07 00:45 26.34451 -79.94754 8317 ft 299 kts 211°
2026-05-07 00:45 26.32662 -79.95904 8038 ft 294 kts 210°
2026-05-07 00:46 26.30906 -79.97031 8019 ft 291 kts 211°
2026-05-07 00:46 26.29148 -79.98160 8019 ft 291 kts 211°
2026-05-07 00:46 26.27394 -79.99288 8018 ft 291 kts 211°
2026-05-07 00:46 26.25639 -80.00415 8027 ft 291 kts 211°
2026-05-07 00:47 26.23881 -80.01543 7905 ft 291 kts 211°
2026-05-07 00:47 26.22130 -80.02667 7704 ft 290 kts 210°
2026-05-07 00:47 26.20388 -80.03785 7495 ft 288 kts 211°
2026-05-07 00:47 26.18809 -80.05131 7308 ft 286 kts 227°
2026-05-07 00:48 26.17643 -80.06905 7079 ft 283 kts 244°
2026-05-07 00:48 26.16938 -80.08934 6780 ft 281 kts 253°
2026-05-07 00:48 26.16328 -80.10995 6468 ft 279 kts 252°
2026-05-07 00:48 26.15708 -80.13036 6184 ft 277 kts 252°
2026-05-07 00:49 26.15150 -80.15081 5888 ft 275 kts 260°
2026-05-07 00:49 26.15011 -80.17189 5567 ft 273 kts 271°
2026-05-07 00:49 26.15027 -80.19296 5211 ft 270 kts 271°
2026-05-07 00:49 26.15041 -80.21350 4867 ft 261 kts 271°
2026-05-07 00:50 26.15052 -80.23341 4527 ft 254 kts 271°
2026-05-07 00:50 26.15059 -80.25275 4217 ft 247 kts 271°
2026-05-07 00:50 26.15076 -80.27171 3847 ft 244 kts 271°
2026-05-07 00:50 26.15095 -80.29040 3512 ft 238 kts 271°
2026-05-07 00:51 26.15099 -80.30825 3186 ft 230 kts 270°
2026-05-07 00:51 26.15023 -80.32582 3019 ft 217 kts 257°
2026-05-07 00:51 26.14285 -80.33983 3004 ft 211 kts 221°
2026-05-07 00:51 26.12975 -80.34619 3010 ft 207 kts 184°
2026-05-07 00:52 26.11586 -80.34459 3025 ft 205 kts 165°
2026-05-07 00:52 26.10226 -80.34023 3032 ft 194 kts 157°
2026-05-07 00:52 26.10077 -80.33951 3026 ft 191 kts 154°
2026-05-07 00:52 26.09205 -80.33285 3005 ft 177 kts 136°
2026-05-07 00:53 26.08419 -80.32258 2820 ft 173 kts 121°
2026-05-07 00:53 26.07948 -80.31118 2580 ft 154 kts 105°
2026-05-07 00:53 26.07767 -80.30004 2382 ft 141 kts 92°
2026-05-07 00:53 26.07757 -80.28936 2202 ft 136 kts 89°
2026-05-07 00:54 26.07751 -80.27891 2021 ft 134 kts 89°
2026-05-07 00:54 26.07746 -80.26858 1846 ft 133 kts 89°
2026-05-07 00:54 26.07741 -80.25838 1670 ft 131 kts 90°
2026-05-07 00:54 26.07737 -80.24820 1498 ft 131 kts 90°
2026-05-07 00:55 26.07732 -80.23803 1323 ft 132 kts 90°
2026-05-07 00:55 26.07727 -80.22789 1150 ft 131 kts 89°
2026-05-07 00:55 26.07723 -80.21780 975 ft 130 kts 91°
2026-05-07 00:55 26.07719 -80.20773 811 ft 131 kts 90°
2026-05-07 00:56 26.07721 -80.19767 626 ft 130 kts 90°
2026-05-07 00:56 26.07717 -80.18762 484 ft 130 kts 90°
2026-05-07 00:56 26.07708 -80.17756 297 ft 130 kts 91°
2026-05-07 00:56 26.07696 -80.16752 89 ft 129 kts 91°
2026-05-07 00:57 26.07691 -80.15772 19 ft 117 kts 90°
2026-05-07 00:57 26.07687 -80.15070 16 ft 56 kts 91°
2026-05-07 00:57 26.07680 -80.14796 19 ft 32 kts 97°
2026-05-07 00:57 26.07638 -80.14624 19 ft 5 kts 112°
2026-05-07 00:58 26.07605 -80.14595 20 ft 9 kts 168°
2026-05-07 00:58 26.07561 -80.14643 17 ft 11 kts 262°
2026-05-07 00:58 26.07555 -80.14721 17 ft 8 kts 238°
2026-05-07 00:58 26.07506 -80.14757 16 ft 10 kts 209°
2026-05-07 00:59 26.07345 -80.14855 16 ft 16 kts 180°
2026-05-07 00:59 26.07269 -80.14823 16 ft 12 kts 129°
2026-05-07 00:59 26.07227 -80.14740 16 ft 10 kts 117°
2026-05-07 01:00 26.07208 -80.14689 16 ft 0 kts 104°
2026-05-07 01:00 26.07205 -80.14679 16 ft 3 kts 109°
2026-05-07 01:00 26.07188 -80.14655 16 ft 4 kts 143°
2026-05-07 01:00 26.07157 -80.14648 16 ft 3 kts 179°
2026-05-07 01:01 26.07153 -80.14648 16 ft 0 kts 179°